Location: Unspecified
(0.0000°N, 0.0000°E)
Time: 10:35:26
(UTC+00:00)

Vanguard 3 - Pass Details

Date: 27 September 2023
Orbit: 507 x 3241 km, 33.3° (Epoch: 06 December)

Event Time Altitude Azimuth Distance (km) Brightness Sun altitude
Rises 14:23:41 0° 232° (SW) 7,052 12.4 51.8°
Reaches altitude 10° 14:28:18 10° 230° (SW) 6,137 12.3 50.7°
Maximum altitude 14:48:30 82° 144° (SE) 2,967 10.7 45.6°
Drops below altitude 10° 15:03:10 10° 58° (ENE) 4,680 10.7 41.9°
Sets 15:06:09 0° 57° (ENE) 5,381 11.0 41.2°
